This demonstration page uses our WeatherBlox Daily Observations layout. Learn more.

Left ArrowRight Arrow

36.17497, -115.13722

Hourly Observations for September 29, 2016

Temp ( °F °C ) Dew Point ( °F °C ) Humidity (%) Winds ( mph kmh ) Pressure ( in mb ) Visibility ( mi km ) Precip ( " mm )
12:53 am 00:53 Clear 75 23.9 50 10 41 41 Calm 30.04 1017 10 16.0934 0 0
1:53 am 01:53 Mostly Clear 72 22.2 51 10.6 48 48 Calm 30.05 1018 10 16.0934 0 0
2:53 am 02:53 Partly Cloudy 72 22.2 50 10 46 46 NNW 5 7 30.05 1018 10 16.0934 0 0
3:53 am 03:53 Mostly Cloudy 72 22.2 50 10 46 46 WNW 6 9 30.06 1018 10 16.0934 0 0
4:53 am 04:53 Cloudy 72 22.2 56 13.3 57 57 NW 3 6 30.08 1019 10 16.0934 0 0
5:53 am 05:53 Mostly Cloudy 72 22.2 55 12.8 55 55 WNW 5 7 30.09 1019 10 16.0934 0 0
6:53 am 06:53 Sunny 71 21.7 56 13.3 59 59 W 6 9 30.11 1020 10 16.0934 0 0
7:53 am 07:53 Sunny 74 23.3 55 12.8 52 52 SW 3 6 30.12 1020 10 16.0934 0 0
8:53 am 08:53 Sunny 76 24.4 51 10.6 42 42 SSE 3 6 30.14 1021 10 16.0934 0 0
9:53 am 09:53 Sunny 79 26.1 51 10.6 38 38 ESE 7 11 30.14 1021 10 16.0934 0 0
10:53 am 10:53 Sunny 83 28.3 51 10.6 33 33 ESE 8 13 30.13 1020 10 16.0934 0 0
11:53 am 11:53 Sunny 84 28.9 51 10.6 32 32 S 6 9 30.12 1020 10 16.0934 0 0
12:53 pm 12:53 Sunny 85 29.4 50 10 30 30 SSE 6 9 30.09 1019 10 16.0934 0 0
1:53 pm 13:53 Sunny 87 30.6 48 8.9 26 26 undefined N/A 30.06 1018 10 16.0934 0 0
2:53 pm 14:53 Sunny 88 31.1 47 8.3 24 24 VRB 6 9 30.04 1017 10 16.0934 0 0
3:53 pm 15:53 Sunny 87 30.6 48 8.9 26 26 SE 9 15 30.02 1017 10 16.0934 0 0
4:53 pm 16:53 Sunny 87 30.6 48 8.9 26 26 S 7 11 30.01 1016 10 16.0934 0 0
5:53 pm 17:53 Sunny 87 30.6 48 8.9 26 26 SE 7 11 30.01 1016 10 16.0934 0 0
6:53 pm 18:53 Clear 85 29.4 48 8.9 28 28 ESE 8 13 30.01 1016 10 16.0934 0 0
7:53 pm 19:53 Clear 83 28.3 48 8.9 30 30 E 6 9 30.02 1017 10 16.0934 0 0
8:53 pm 20:53 Clear 81 27.2 48 8.9 32 32 E 6 9 30.04 1017 10 16.0934 0 0
9:53 pm 21:53 Cloudy 81 27 48 9 32 32 Calm 29.94 1014 10 16.0934 0 0
10:53 pm 22:53 Clear 79 26.1 48 8.9 34 34 ENE 5 7 30.04 1017 10 16.0934 0 0
11:53 pm 23:53 Clear 77 25 49 9.4 37 37 NW 3 6 30.04 1017 10 16.0934 0 0

Powered by AerisWeather